FW9607 Weather Reports


time (UTC)temp
C
wind
direction
speed
KPH
gust
KPH
rain 1hr
cm
rain 24hr
cm
rain mn
cm
humidity
%
barometer
mb
20260506213233 30 125 4.8 12.9 0.00 0.00 0.00 79 1005.5
20260506212735 30 142 4.8 11.3 0.00 0.00 0.00 79 1005.5
20260506211232 30 222 4.8 11.3 0.00 0.00 0.00 79 1005.6
20260506210733 30 94 4.8 11.3 0.00 0.00 0.00 80 1005.7
20260506210233 30 194 4.8 9.7 0.00 0.00 0.00 80 1005.7
20260506205733 30 98 4.8 9.7 0.00 0.00 0.00 80 1005.7
20260506205233 30 134 4.8 14.5 0.00 0.00 0.00 81 1005.8
20260506203733 29 89 4.8 11.3 0.00 0.00 0.00 83 1005.9
20260506203233 29 113 4.8 11.3 0.00 0.00 0.00 82 1005.9
20260506202733 29 76 4.8 12.9 0.00 0.00 0.00 82 1005.9
20260506202233 29 87 4.8 12.9 0.00 0.00 0.00 83 1005.9
20260506201733 28 78 6.4 14.5 0.00 0.00 0.00 84 1006.1
20260506201232 28 110 6.4 16.1 0.00 0.00 0.00 84 1006.2
20260506200729 28 133 6.4 16.1 0.00 0.00 0.00 84 1006.2
20260506200229 28 133 6.4 14.5 0.00 0.00 0.00 83 1006.3
20260506195729 28 110 6.4 14.5 0.00 0.00 0.00 84 1006.3
20260506195229 28 96 6.4 14.5 0.00 0.00 0.00 84 1006.3
20260506194730 29 104 6.4 14.5 0.00 0.00 0.00 84 1006.4
20260506194232 29 95 6.4 16.1 0.00 0.00 0.00 83 1006.5
20260506193730 29 150 6.4 16.1 0.00 0.00 0.00 82 1006.5
20260506193231 30 69 6.4 16.1 0.00 0.00 0.00 81 1006.6
20260506192730 30 114 4.8 14.5 0.00 0.00 0.00 80 1006.6
20260506191730 31 175 1.6 6.4 0.00 0.00 0.00 73 1006.7
20260506191232 31 0 1.6 6.4 0.00 0.00 0.00 75 1006.7
20260506190730 31 0 3.2 8.0 0.00 0.00 0.00 76 1006.7
20260506185730 31 201 3.2 11.3 0.00 0.00 0.00 75 1006.7
20260506184727 31 143 3.2 8.0 0.00 0.00 0.00 75 1006.8
20260506184228 31 122 3.2 8.0 0.00 0.00 0.00 73 1006.8
20260506183725 31 211 3.2 8.0 0.00 0.00 0.00 75 1006.8
20260506183225 31 233 1.6 6.4 0.00 0.00 0.00 75 1006.8
20260506182725 31 191 1.6 6.4 0.00 0.00 0.00 74 1006.9
20260506182225 30 0 3.2 9.7 0.00 0.00 0.00 75 1006.9
20260506181725 30 257 4.8 11.3 0.00 0.00 0.00 75 1006.9
20260506181225 30 190 4.8 11.3 0.00 0.00 0.00 76 1007.0
20260506180725 30 181 4.8 11.3 0.00 0.00 0.00 75 1007.0
20260506175726 30 241 6.4 14.5 0.00 0.00 0.00 76 1007.0
20260506175225 30 231 6.4 14.5 0.00 0.00 0.00 76 1006.9
20260506174723 30 221 4.8 11.3 0.00 0.00 0.00 76 1007.0
20260506174223 30 284 4.8 12.9 0.00 0.00 0.00 76 1007.1
20260506173723 30 193 4.8 12.9 0.00 0.00 0.00 75 1007.1
20260506173223 30 225 4.8 9.7 0.00 0.00 0.00 75 1007.1
20260506172723 30 198 4.8 14.5 0.00 0.00 0.00 76 1007.1
20260506172223 30 170 4.8 14.5 0.00 0.00 0.00 76 1007.0
20260506171723 30 181 4.8 14.5 0.00 0.00 0.00 78 1007.0
20260506171223 30 177 4.8 12.9 0.00 0.00 0.00 77 1007.0
20260506170723 29 217 3.2 9.7 0.00 0.00 0.00 79 1007.0
20260506170214 28 205 4.8 12.9 0.00 0.00 0.00 81 1007.0
20260506165713 28 203 6.4 12.9 0.00 0.00 0.00 82 1007.1
20260506165214 28 251 4.8 9.7 0.00 0.00 0.00 82 1007.1
20260506164714 28 190 4.8 12.9 0.00 0.00 0.00 83 1007.2
20260506164217 28 152 4.8 12.9 0.00 0.00 0.00 84 1007.3
20260506163714 27 196 4.8 11.3 0.00 0.00 0.00 85 1007.3
20260506163221 27 175 4.8 11.3 0.00 0.00 0.00 85 1007.3
20260506162219 27 175 6.4 14.5 0.00 0.00 0.00 85 1007.3
20260506161714 27 202 4.8 14.5 0.00 0.00 0.00 86 1007.2
20260506161220 27 114 4.8 9.7 0.00 0.00 0.00 87 1007.2
20260506160226 27 162 6.4 14.5 0.00 0.00 0.00 88 1007.2
20260506155711 27 181 6.4 16.1 0.00 0.00 0.00 88 1007.1
20260506155213 27 133 4.8 16.1 0.00 0.00 0.00 88 1007.0
20260506154710 27 142 4.8 9.7 0.00 0.00 0.00 88 1007.0
20260506153710 27 187 4.8 11.3 0.00 0.00 0.00 89 1006.9
20260506153209 27 149 3.2 9.7 0.00 0.00 0.00 89 1006.8
20260506152710 27 233 3.2 6.4 0.00 0.00 0.00 89 1006.8
20260506151710 27 188 4.8 6.4 0.00 0.00 0.00 89 1006.7
20260506151209 26 222 3.2 8.0 0.00 0.00 0.00 90 1006.6
20260506150711 26 166 3.2 8.0 0.00 0.00 0.00 91 1006.6
20260506150157 26 139 3.2 8.0 0.00 0.00 0.00 91 1006.7
20260506145655 26 149 3.2 6.4 0.00 0.00 0.00 91 1006.7
20260506145154 26 185 3.2 6.4 0.00 0.00 0.00 92 1006.7
20260506144656 26 163 3.2 8.0 0.00 0.00 0.00 91 1006.8
20260506144140 26 162 3.2 8.0 0.00 0.00 0.00 91 1006.7
20260506143657 26 140 3.2 4.8 0.00 0.00 0.00 92 1006.7
20260506142643 26 127 3.2 8.0 0.00 0.00 0.00 93 1006.8
20260506142140 26 146 3.2 8.0 0.00 0.00 0.00 93 1006.8
20260506141644 26 133 3.2 6.4 0.00 0.00 0.00 93 1006.8
20260506141140 26 136 3.2 6.4 0.00 0.00 0.00 93 1006.9
20260506140645 26 165 3.2 6.4 0.00 0.00 0.00 94 1006.9
20260506135643 26 132 3.2 4.8 0.00 0.00 0.00 94 1006.9
20260506135141 26 143 3.2 4.8 0.00 0.00 0.00 93 1006.9
20260506134643 26 147 3.2 4.8 0.00 0.00 0.00 93 1006.9
20260506134139 26 175 3.2 6.4 0.00 0.00 0.00 93 1006.8
20260506132113 26 158 3.2 6.4 0.00 0.00 0.00 93 1006.8
20260506131616 26 145 3.2 6.4 0.00 0.00 0.00 93 1006.8
20260506131112 26 152 3.2 6.4 0.00 0.00 0.00 93 1006.8
20260506130616 25 191 3.2 9.7 0.00 0.00 0.00 92 1006.7
20260506130112 25 151 3.2 9.7 0.00 0.00 0.00 93 1006.6
20260506125616 25 114 3.2 8.0 0.00 0.00 0.00 93 1006.6
20260506124559 25 125 4.8 8.0 0.00 0.00 0.00 93 1006.4
20260506124100 25 139 3.2 8.0 0.00 0.00 0.00 93 1006.4
20260506123557 25 110 3.2 6.4 0.00 0.00 0.00 93 1006.4
20260506123056 25 161 3.2 6.4 0.00 0.00 0.00 93 1006.3
20260506122556 25 142 3.2 6.4 0.00 0.00 0.00 93 1006.2
20260506122056 25 140 3.2 6.4 0.00 0.00 0.00 93 1006.3
20260506121556 25 94 3.2 4.8 0.00 0.00 0.00 93 1006.3
20260506121057 25 172 3.2 6.4 0.00 0.00 0.00 93 1006.2
20260506120542 25 165 3.2 6.4 0.00 0.00 0.00 93 1006.1
20260506120042 25 85 3.2 4.8 0.00 0.00 0.00 93 1006.1
20260506115542 25 136 3.2 4.8 0.00 0.00 0.00 93 1006.0
20260506115041 25 106 3.2 6.4 0.00 0.00 0.00 93 1005.9
20260506114042 25 104 3.2 8.0 0.00 0.00 0.00 93 1005.9
20260506113546 25 138 3.2 6.4 0.00 0.00 0.00 93 1005.8
20260506113044 25 106 3.2 6.4 0.00 0.00 0.00 93 1005.9
20260506112546 25 86 3.2 6.4 0.00 0.00 0.00 93 1005.9
20260506112043 25 84 3.2 6.4 0.00 0.00 0.00 92 1005.9
20260506111546 25 92 3.2 6.4 0.00 0.00 0.00 92 1005.9
20260506111043 25 89 3.2 6.4 0.00 0.00 0.00 92 1005.8
20260506110546 25 131 3.2 6.4 0.00 0.00 0.00 92 1005.7
20260506110042 25 97 4.8 6.4 0.00 0.00 0.00 92 1005.7
20260506105545 25 106 3.2 6.4 0.00 0.00 0.00 92 1005.6
20260506105028 25 145 3.2 8.0 0.00 0.00 0.00 92 1005.6
20260506104516 25 115 3.2 8.0 0.00 0.00 0.00 92 1005.5
20260506104014 25 126 3.2 8.0 0.00 0.00 0.00 92 1005.5
20260506103515 25 95 3.2 4.8 0.00 0.00 0.00 92 1005.5
20260506103012 25 91 3.2 4.8 0.00 0.00 0.00 92 1005.6
20260506102514 25 126 3.2 4.8 0.00 0.00 0.00 92 1005.6
20260506102012 25 126 3.2 4.8 0.00 0.00 0.00 92 1005.6
20260506101515 25 146 3.2 4.8 0.00 0.00 0.00 92 1005.6
20260506101013 25 136 3.2 4.8 0.00 0.00 0.00 92 1005.5
20260506100515 25 138 3.2 4.8 0.00 0.00 0.00 92 1005.4
20260506100013 25 135 3.2 4.8 0.00 0.00 0.00 92 1005.4
20260506095514 25 159 3.2 4.8 0.00 0.00 0.00 92 1005.4
20260506095013 25 148 3.2 6.4 0.00 0.00 0.00 92 1005.4
20260506094514 25 155 3.2 6.4 0.00 0.00 0.00 92 1005.5
20260506094013 25 144 3.2 4.8 0.00 0.00 0.00 91 1005.5
20260506093000 25 157 3.2 4.8 0.00 0.00 0.00 91 1005.4
20260506092504 25 123 3.2 4.8 0.00 0.00 0.00 91 1005.3
20260506091944 25 138 3.2 6.4 0.00 0.00 0.00 91 1005.3
20260506091444 25 140 3.2 6.4 0.00 0.00 0.00 91 1005.3
20260506090946 25 128 3.2 6.4 0.00 0.00 0.00 91 1005.3
20260506090450 25 153 3.2 4.8 0.00 0.00 0.00 91 1005.2
20260506085450 25 147 3.2 4.8 0.00 0.00 0.00 91 1005.2
20260506084945 25 153 3.2 3.2 0.00 0.00 0.00 91 1005.1
20260506084450 25 175 3.2 4.8 0.00 0.00 0.00 91 1005.0
20260506083448 26 127 1.6 4.8 0.00 0.00 0.00 90 1005.1
20260506082945 26 148 1.6 3.2 0.00 0.00 0.00 90 1005.1
20260506082446 26 84 1.6 4.8 0.00 0.00 0.00 90 1005.0
20260506081943 26 183 3.2 4.8 0.00 0.00 0.00 90 1005.1
20260506081443 26 192 3.2 6.4 0.00 0.00 0.00 90 1005.1
20260506080930 26 148 3.2 6.4 0.00 0.00 0.00 90 1005.1
20260506073425 26 149 3.2 8.0 0.00 0.00 0.00 90 1005.2
20260506072925 26 173 3.2 9.7 0.00 0.00 0.00 90 1005.3
20260506072424 26 156 4.8 9.7 0.00 0.00 0.00 90 1005.3
20260506071425 26 183 3.2 9.7 0.00 0.00 0.00 90 1005.3
20260506070926 26 109 4.8 11.3 0.00 0.00 0.00 90 1005.3
20260506070425 26 127 4.8 11.3 0.00 0.00 0.00 90 1005.3
20260506062423 26 113 3.2 6.4 0.00 0.00 0.00 91 1005.8
20260506061922 26 150 3.2 6.4 0.00 0.00 0.00 91 1006.0
20260506061423 26 175 3.2 8.0 0.00 0.00 0.00 91 1006.0
20260506060423 26 104 3.2 9.7 0.00 0.00 0.00 91 1006.1
20260506050917 25 156 4.8 11.3 0.00 0.00 0.00 92 1006.2
20260506050418 25 162 6.4 11.3 0.00 0.00 0.00 92 1006.2
20260506044918 25 124 4.8 8.0 0.00 0.00 0.00 92 1006.4
20260506044419 25 153 4.8 9.7 0.00 0.00 0.00 92 1006.3
20260506043919 25 132 6.4 11.3 0.00 0.00 0.00 92 1006.3
20260506043419 25 102 6.4 11.3 0.00 0.00 0.00 92 1006.3
20260506042415 25 143 6.4 11.3 0.00 0.00 0.00 92 1006.3
20260506041913 25 150 6.4 14.5 0.00 0.00 0.00 92 1006.2
20260506041413 25 137 6.4 14.5 0.00 0.00 0.00 92 1006.1
20260506040912 25 154 4.8 8.0 0.00 0.00 0.00 92 1006.1
20260506035913 25 161 6.4 9.7 0.00 0.00 0.00 92 1006.1
20260506035412 25 147 4.8 9.7 0.00 0.00 0.00 92 1006.0
20260506034913 25 140 4.8 9.7 0.00 0.00 0.00 92 1006.1
20260506033913 25 162 4.8 9.7 0.00 0.00 0.00 92 1006.0
20260506033413 25 163 4.8 9.7 0.00 0.00 0.00 92 1005.9
20260506032914 25 143 6.4 9.7 0.00 0.00 0.00 92 1005.8
20260506032413 25 175 6.4 14.5 0.00 0.00 0.00 92 1005.7
20260506031914 25 165 6.4 14.5 0.00 0.00 0.00 92 1005.7
20260506031413 25 122 6.4 14.5 0.00 0.00 0.00 91 1005.6
20260506030411 25 119 4.8 9.7 0.00 0.00 0.00 91 1005.5
20260506025911 25 137 4.8 12.9 0.00 0.00 0.00 91 1005.4
20260506025411 25 152 6.4 16.1 0.00 0.00 0.00 91 1005.4
20260506024910 25 152 6.4 16.1 0.00 0.00 0.00 91 1005.4
20260506024411 25 164 4.8 11.3 0.00 0.00 0.00 91 1005.3
20260506023911 26 156 4.8 11.3 0.00 0.00 0.00 91 1005.2
20260506023410 26 145 4.8 14.5 0.00 0.00 0.00 90 1005.1
20260506022911 26 144 4.8 14.5 0.00 0.00 0.00 90 1005.2
20260506022411 26 176 4.8 12.9 0.00 0.00 0.00 90 1005.1
20260506021911 26 179 4.8 12.9 0.00 0.00 0.00 89 1005.0
20260506021411 26 114 4.8 14.5 0.00 0.00 0.00 89 1005.0
20260506020911 26 171 6.4 14.5 0.00 0.00 0.00 89 1004.9
20260506020411 26 116 4.8 11.3 0.00 0.00 0.00 88 1004.8
20260506015912 26 185 6.4 11.3 0.00 0.00 0.00 88 1004.7
20260506015412 26 145 6.4 12.9 0.00 0.00 0.00 88 1004.7
20260506014912 26 138 6.4 14.5 0.00 0.00 0.00 88 1004.6
20260506014406 26 129 6.4 16.1 0.00 0.00 0.00 87 1004.5
20260506013406 26 164 6.4 14.5 0.00 0.00 0.00 87 1004.4
20260506012406 26 134 6.4 14.5 0.00 0.00 0.00 86 1004.2
20260506011406 27 122 6.4 14.5 0.00 0.00 0.00 86 1004.1
20260506010906 27 104 6.4 14.5 0.00 0.00 0.00 86 1003.9
20260506010407 27 147 6.4 14.5 0.00 0.00 0.00 86 1004.0
20260506005406 27 106 6.4 14.5 0.00 0.00 0.00 84 1003.8
20260506004906 27 122 6.4 14.5 0.00 0.00 0.00 84 1003.7
20260506003404 27 142 4.8 12.9 0.00 0.00 0.00 84 1003.7
20260506002902 28 195 4.8 12.9 0.00 0.00 0.00 83 1003.6
20260506001903 28 97 6.4 17.7 0.00 0.00 0.00 83 1003.6
20260506001400 28 164 6.4 17.7 0.00 0.00 0.00 83 1003.6
20260506000903 28 122 6.4 17.7 0.00 0.00 0.00 83 1003.6
20260506000401 28 142 8.0 16.1 0.00 0.00 0.00 83 1003.5
20260505235903 28 128 8.0 16.1 0.00 0.00 0.00 83 1003.6
20260505235401 28 121 8.0 16.1 0.00 0.00 0.00 82 1003.5
20260505234401 28 119 6.4 20.9 0.00 0.00 0.00 81 1003.4
20260505233904 28 116 6.4 29.0 0.00 0.00 0.00 81 1003.3
20260505232355 29 118 8.0 16.1 0.00 0.00 0.00 79 1003.2
20260505231857 29 153 8.0 20.9 0.00 0.00 0.00 78 1003.3
20260505231353 29 72 8.0 20.9 0.00 0.00 0.00 79 1003.2
20260505225856 29 135 8.0 20.9 0.00 0.00 0.00 78 1003.2
20260505225351 29 102 8.0 14.5 0.00 0.00 0.00 77 1003.0
20260505224351 30 115 8.0 22.5 0.00 0.00 0.00 77 1003.1
20260505223855 30 97 8.0 17.7 0.00 0.00 0.00 76 1003.1
20260505223352 30 134 9.7 17.7 0.00 0.00 0.00 77 1003.1
20260505222856 29 91 9.7 29.0 0.00 0.00 0.00 77 1003.1
20260505222351 30 96 9.7 29.0 0.00 0.00 0.00 77 1003.1
20260505221855 30 98 8.0 17.7 0.00 0.00 0.00 76 1003.2
20260505221351 30 87 8.0 17.7 0.00 0.00 0.00 76 1003.2
20260505220855 30 113 8.0 19.3 0.00 0.00 0.00 76 1003.2
20260505220352 30 103 8.0 19.3 0.00 0.00 0.00 76 1003.1
20260505215351 30 121 9.7 27.4 0.00 0.00 0.00 75 1003.4
20260505214852 30 125 9.7 27.4 0.00 0.00 0.00 76 1003.2
20260505214351 30 94 9.7 20.9 0.00 0.00 0.00 76 1003.4
20260505213853 30 144 9.7 20.9 0.00 0.00 0.00 75 1003.5